Regional Weather Roundup
Issued by NWS

Home | Current Version | Previous Version | Text Only | Print | Product List | Glossary On
Versions: 1 2 3 4 5 6 7 8 9 10 11 12 13 14 15 16 17 18 19 20 21 22 23 24 25 26 27 28 29 30 31 32 33 34 35 36 37 38 39 40 41 42 43 44 45 46 47 48 49 50
000
ASUS44 KMEG 012310
RWRTN
TENNESSEE HOURLY STATE WEATHER ROUNDUP
NATIONAL WEATHER SERVICE MEMPHIS TN
500 PM CST SUN MAR 01 2015

TNZ002-004-019-021-049-052-054-088>092-020000-
WEST TENNESSEE

CITY           SKY/WX    TMP DP  RH WIND       PRES   REMARKS
MEMPHIS INTL   LGT RAIN  44  42  93 NW3       30.32S VSB 1
NWS MEMPHIS      N/A     44 N/A N/A MISG        N/A
JACKSON        LGT RAIN  45  43  93 NW6       30.31R VSB 3/4
DYERSBURG      CLOUDY    36  23  60 CALM      30.36R
UNION CITY     CLOUDY    32  32 100 N5        30.32S WCI  27
PARIS          CLOUDY    37  37 100 NW8       30.32R VSB 3/4 WCI  31
LEXINGTON      CLOUDY    52  50  93 S3        30.28F
SAVANNAH       CLOUDY    52  52 100 CALM      30.29F
$$

TNZ008-025-027-028-033-062-065-066-020000-
NORTH MIDDLE TENNESSEE

CITY           SKY/WX    TMP DP  RH WIND       PRES   REMARKS
NASHVILLE      CLOUDY    51  49  92 S3        30.30F
CLARKSVILLE    LGT RAIN  47  46  97 NW5       30.30S VSB 1
SMYRNA         CLOUDY    51  49  93 CALM      30.31F
COOKEVILLE     CLOUDY    48  48 100 SW6       30.30S
CROSSVILLE     CLOUDY    47  44  90 S6        30.30F FOG
$$

TNZ061-075-076-078-094-096-097-020000-
SOUTH MIDDLE TENNESSEE

CITY           SKY/WX    TMP DP  RH WIND       PRES   REMARKS
FAYETTEVILLE   CLOUDY    46  46 100 S7          N/A
TULLAHOMA      CLOUDY    48  46  93 S3        30.32S
WINCHESTER     CLOUDY    48  46  93 SE7       30.32S
MCMINNVILLE    CLOUDY    50  50 100 SW3       30.31S
COLUMBIA       CLOUDY   N/A N/A N/A CALM      30.28F
SHELBYVILLE    MOCLDY    50  48  93 S6        30.31F
$$

TNZ017-018-042-046-047-020000-
NORTHEAST TENNESSEE

CITY           SKY/WX    TMP DP  RH WIND       PRES   REMARKS
TRI CITIES     CLOUDY    46  42  86 CALM      30.31F
ELIZABETHTON   CLOUDY    52  37  58 CALM      30.30F
$$

TNZ012-013-036-069-073-074-020000-
CENTRAL EAST TENNESSEE

CITY           SKY/WX    TMP DP  RH WIND       PRES   REMARKS
KNOXVILLE      CLOUDY    47  41  80 W6        30.34F
OAK RIDGE      CLOUDY    45  43  93 SW3       30.35F FOG
GATLINBURG     CLOUDY    46  39  76 CALM      30.32F
MORRISTOWN     PTCLDY    45  39  81 NW3       30.33S
$$

TNZ083-085-099-020000-
SOUTHEAST TENNESSEE

CITY           SKY/WX    TMP DP  RH WIND       PRES   REMARKS
CHATTANOOGA    CLOUDY    48  44  86 S7        30.36F
$$

SKY/WX REPORTED AS FAIR MEANS FEW OR NO CLOUDS BELOW
12 THOUSAND FEET.




USA.gov is the U.S. government's official web portal to all federal, state and local government web resources and services.